カタログに戻る

FENGYUN 1C DEB

運用中LEO
NORAD 31568·DEBRIS·🇨🇳 China

打ち上げ May 10, 1999 から Taiyuan Satellite Launch Center

Loading…

次のパス (今後24時間)

TLE

最新Source: Space-Track

元期: Sep 14, 2026, 05:05 UTC

1 31568U 99025BZK 26257.21245871  .00001834  00000-0  10981-2 0  9997
2 31568 102.0445 233.4383 0120195 155.6545 205.0353 14.05491909984478

AllMySatでFENGYUN 1C DEBをリアルタイム追跡

Download on the App Store